Theta_e
287 286 286 286 286 286 285 285 285 285 285 285 285 284 284 284 284 284 284 284 284 284 284 284 284 284 284 284 284 284 285 285 286 286 286 286 286 286 286 286 286 287 287 287 287 287 287 287 287 287 287 288 288 288 289 289 289 289 289 290 291 291 290 290 290 290 290 291 291 291 292 292 292 292 292 292 292 292 292 292 292 292 293 293 293 293
287 287 286 286 286 286 285 285 285 285 285 285 285 284 284 284 284 284 284 284 284 284 284 284 284 284 284 284 284 284 284 285 285 285 286 286 286 286 286 286 286 286 286 286 287 287 287 287 287 287 287 287 287 288 288 288 288 288 289 290 291 291 290 290 289 289 290 290 291 291 291 291 291 292 292 292 292 292 292 292 292 292 292 293 293 293
287 287 286 286 286 286 285 285 285 285 285 285 284 284 284 284 284 284 284 284 284 284 284 284 284 284 283 283 284 284 284 284 285 285 285 285 285 285 286 286 286 286 286 286 286 286 287 287 287 287 287 287 287 287 288 288 288 288 289 290 290 290 290 289 289 289 290 290 290 290 290 291 291 291 291 291 291 291 292 292 292 292 292 292 292 293
287 287 286 286 286 286 285 285 285 284 284 284 284 284 284 284 284 284 284 284 284 284 284 284 283 283 283 283 283 284 284 284 284 284 285 285 285 285 285 285 285 285 286 286 286 286 286 286 286 286 287 287 287 287 287 288 288 288 289 289 290 290 290 289 289 289 289 289 289 290 290 290 290 290 290 291 291 291 291 292 292 292 292 292 292 292
287 287 286 286 286 286 285 285 285 284 284 284 284 284 284 284 284 283 283 283 284 284 283 283 283 283 283 283 283 283 284 284 284 284 284 284 284 285 285 285 285 285 285 285 286 286 286 286 286 286 286 286 287 287 287 287 288 288 288 289 289 290 289 289 289 289 289 289 289 289 289 290 290 290 290 290 291 291 291 291 291 291 291 292 292 292
287 287 286 286 286 286 285 285 285 284 284 284 284 284 284 284 284 283 283 283 283 283 283 283 283 283 283 283 283 283 283 283 284 284 284 284 284 284 284 284 284 285 285 285 285 285 285 286 286 286 286 286 286 287 287 287 287 288 288 289 289 289 289 289 289 288 289 289 289 289 289 289 289 290 290 290 290 291 291 291 291 291 291 291 292 292
287 287 287 287 286 286 286 285 285 285 284 284 284 284 284 284 283 283 283 283 283 283 283 283 283 283 283 283 283 283 283 283 283 283 284 284 284 284 284 284 284 284 284 284 285 285 285 285 285 285 285 286 286 286 286 287 287 287 288 288 289 289 289 288 288 288 288 288 288 289 289 289 289 290 290 290 290 290 290 290 291 291 291 291 292 292
287 287 287 287 286 286 286 285 285 285 284 284 284 284 284 283 283 283 283 283 283 283 283 283 283 283 283 283 283 283 283 283 283 283 283 283 283 283 283 283 284 284 284 284 284 284 285 285 285 285 285 285 285 286 286 286 287 287 288 288 288 288 288 288 288 288 288 288 288 289 289 289 289 289 290 290 290 290 290 290 290 291 291 291 292 292
286 286 286 286 286 286 286 285 285 285 285 284 284 284 284 283 283 283 283 283 283 283 283 283 283 283 283 283 283 283 283 283 283 283 283 283 283 283 283 283 283 283 284 284 284 284 284 284 284 284 284 285 285 285 286 286 286 287 287 288 288 288 288 288 288 288 288 288 288 289 289 289 289 289 289 290 290 290 290 290 290 290 291 291 292 292
286 286 286 286 286 286 286 285 285 285 285 284 284 284 284 283 283 283 283 283 283 283 283 283 283 283 283 283 283 283 283 283 283 283 283 283 283 283 283 283 283 283 283 283 284 284 284 284 284 284 284 284 284 285 285 286 286 286 287 287 287 287 287 287 287 287 288 288 288 288 288 289 289 289 289 289 290 290 290 290 290 290 291 291 292 293
286 286 286 286 286 285 285 285 285 285 285 284 284 284 283 283 283 283 283 283 283 283 283 283 283 283 283 283 283 283 283 283 282 283 283 283 283 283 283 283 283 283 283 283 283 283 283 283 283 283 283 284 284 284 285 285 286 286 287 287 287 287 287 287 287 287 287 287 288 288 288 289 289 289 289 289 289 289 290 290 290 290 291 291 292 293
286 286 285 285 285 285 285 285 285 285 284 284 284 284 283 283 283 282 283 283 283 283 283 283 283 283 283 283 283 283 283 282 282 282 283 283 283 283 283 283 283 283 283 283 283 283 283 283 283 283 283 283 284 284 284 285 285 286 286 286 287 287 286 286 287 287 287 287 288 288 288 288 289 289 289 289 289 289 289 290 290 290 291 291 292 292
285 285 285 285 285 285 285 285 284 284 284 284 284 283 283 283 282 282 282 282 282 282 282 283 283 283 283 283 283 283 282 282 282 282 282 283 283 283 283 283 283 283 283 283 283 283 283 283 283 283 283 283 283 284 284 285 285 285 286 286 286 286 286 286 286 287 287 287 287 288 288 288 288 289 289 289 289 289 289 289 290 290 291 291 292 292
285 285 285 285 285 285 284 284 284 284 284 284 283 283 283 283 282 282 282 282 282 282 282 282 283 283 283 283 283 283 282 282 282 282 282 283 283 283 283 283 283 283 283 283 283 283 283 283 283 283 283 283 283 283 284 284 285 285 285 286 286 286 286 286 286 286 286 287 287 287 288 288 288 288 289 289 289 289 289 289 289 290 290 291 291 291
285 285 285 285 285 284 284 284 284 283 283 283 283 283 283 282 282 282 282 282 282 282 282 282 283 283 283 283 283 282 282 282 282 282 282 282 283 283 283 283 283 283 283 283 283 283 283 283 283 283 282 283 283 283 284 284 284 285 285 285 285 285 285 286 286 286 286 287 287 287 288 288 288 288 288 288 289 289 289 289 289 290 290 291 291 290
285 285 285 284 284 284 284 283 283 283 283 283 283 282 282 282 282 282 282 282 282 282 282 282 282 283 283 283 283 282 282 281 281 282 282 282 283 283 283 283 283 283 283 283 283 283 283 283 283 283 283 283 283 283 283 284 284 285 285 285 285 285 285 285 285 286 286 286 287 287 287 288 288 288 288 288 288 288 289 289 289 289 290 290 290 290
284 284 284 284 284 284 283 283 283 283 283 282 282 282 282 282 282 282 282 282 282 282 282 282 282 283 283 283 283 282 282 281 281 281 282 282 283 283 283 283 283 283 283 283 283 283 283 283 283 283 283 283 283 283 283 284 284 284 285 285 285 285 285 285 285 285 286 286 286 287 287 287 287 288 288 288 288 288 288 289 289 289 289 290 290 289
284 284 283 283 283 283 283 283 283 282 282 282 282 282 282 282 281 281 281 281 281 281 281 281 282 282 283 283 283 282 281 281 281 281 282 282 283 283 283 283 283 283 283 283 283 283 283 283 283 283 283 283 283 283 283 283 284 284 284 285 284 284 285 285 285 285 285 286 286 286 287 287 287 287 287 287 288 288 288 288 288 289 289 289 289 289
284 283 282 282 283 283 283 282 282 282 282 282 282 282 282 281 281 281 281 281 281 281 281 281 281 282 282 282 282 282 281 281 281 281 281 282 282 283 283 283 283 283 283 283 283 283 283 283 283 283 283 283 283 283 283 283 283 284 284 284 284 284 284 284 284 285 285 285 286 286 286 286 287 287 287 287 287 287 287 288 288 288 289 289 288 288
283 283 282 282 282 282 282 282 282 282 282 282 282 281 281 281 281 281 281 281 281 281 281 281 281 282 282 282 282 281 281 281 281 281 281 282 282 283 283 283 283 283 283 283 283 282 282 282 282 282 282 283 283 283 283 283 283 283 284 284 284 284 284 284 284 285 285 285 285 286 286 286 286 286 286 287 287 287 287 287 288 288 288 288 288 288
283 282 282 282 282 282 282 282 282 282 282 282 281 281 281 281 281 281 281 281 281 281 281 281 281 281 281 281 281 281 281 281 281 281 281 281 282 282 283 283 283 283 283 282 282 282 282 282 282 282 283 283 283 283 283 283 283 283 283 284 284 284 284 284 284 284 284 285 285 285 285 286 286 286 286 286 286 286 287 287 287 287 288 287 287 287
282 282 282 281 281 282 281 281 281 281 282 281 281 281 280 280 280 280 280 280 280 280 280 280 280 281 281 281 281 281 281 281 281 281 281 281 282 282 282 282 282 282 282 282 282 282 282 282 282 282 282 283 283 283 283 283 283 283 283 283 283 283 284 284 284 284 284 284 285 285 285 285 285 285 286 286 286 286 286 287 287 287 287 287 287 287
282 282 281 281 281 281 281 281 281 281 281 281 281 281 280 279 279 280 280 280 280 280 280 280 280 280 281 281 282 282 282 282 281 281 281 281 281 282 282 282 282 282 282 282 282 281 281 282 282 282 283 283 283 283 282 283 283 283 283 283 283 283 283 283 284 284 284 284 284 285 285 285 285 285 285 285 286 286 286 286 286 287 287 286 286 286
282 281 281 281 281 281 281 281 281 281 281 281 281 280 280 279 279 279 279 280 279 279 279 280 280 281 282 282 282 282 282 282 281 281 281 281 281 281 281 282 282 282 282 281 281 281 281 281 282 282 283 283 283 282 282 282 283 283 283 283 283 283 283 283 283 283 284 284 284 284 284 284 285 285 285 285 285 285 286 286 286 286 286 286 286 286
281 281 280 280 280 280 280 280 280 280 280 280 280 280 279 279 279 279 279 280 279 279 280 280 281 282 282 282 282 282 282 282 281 281 280 280 280 280 281 281 281 281 281 281 281 281 281 281 282 282 283 283 282 282 282 282 282 282 282 282 283 283 283 283 283 283 283 283 284 284 284 284 284 284 284 285 285 285 285 286 286 286 286 285 285 285
280 280 280 280 280 279 279 279 279 280 280 280 280 279 279 279 279 279 280 280 279 279 279 280 281 282 282 282 282 282 282 282 281 281 280 279 280 280 281 281 281 281 280 280 280 280 281 281 282 282 283 283 282 282 282 282 282 282 282 282 282 282 282 283 283 283 283 283 283 284 284 284 284 284 284 284 284 285 285 285 285 285 285 285 285 285
279 279 279 279 279 279 279 279 279 279 279 279 279 278 278 278 278 279 279 279 278 278 279 280 281 281 281 281 281 281 281 282 281 280 279 279 279 280 280 280 280 280 280 280 280 280 280 281 282 282 282 282 282 282 282 282 282 282 282 282 282 282 282 282 283 283 283 283 283 283 283 284 284 284 284 284 284 284 285 285 285 285 285 284 284 284
279 279 279 279 279 279 278 278 278 278 278 278 278 278 277 278 278 278 278 278 277 278 279 280 280 281 281 281 280 281 281 282 281 280 279 279 279 280 280 280 279 279 279 279 279 280 280 281 282 282 282 282 281 281 281 282 282 282 282 282 282 282 282 282 282 282 283 283 283 283 283 283 283 283 284 284 284 284 284 284 285 285 284 284 284 284
279 279 279 279 279 279 279 279 278 278 278 278 278 278 277 277 277 277 277 277 277 277 278 279 279 280 280 280 280 280 281 282 281 279 278 278 279 279 279 279 279 279 279 279 279 279 280 281 281 281 281 281 281 281 281 281 281 282 281 281 282 282 282 282 282 282 282 282 283 283 283 283 283 283 283 283 284 284 284 284 284 284 284 284 284 284
279 279 279 279 279 279 279 279 278 278 278 278 278 277 277 277 277 277 276 276 276 277 277 278 278 278 278 279 279 280 281 281 280 279 278 278 278 278 278 278 278 278 278 278 279 279 280 281 281 281 280 280 280 281 281 281 281 281 281 281 281 281 282 282 282 282 282 282 282 282 283 283 283 283 283 283 283 283 284 284 284 284 284 284 284 284
279 279 279 279 279 279 278 278 278 278 278 278 277 277 277 277 277 276 276 276 276 276 277 277 277 277 278 278 279 280 281 280 279 278 278 278 278 278 278 278 278 278 278 278 278 279 279 280 280 280 280 280 280 280 281 281 281 281 281 281 281 281 281 281 281 282 282 282 282 282 282 282 282 283 283 283 283 283 283 284 284 284 284 283 283 284
279 279 279 279 279 279 278 278 278 278 278 278 277 277 277 277 277 276 276 276 276 276 276 276 277 277 277 277 278 279 279 279 278 278 277 277 277 277 277 277 277 277 277 278 278 278 279 279 279 279 279 279 280 280 281 281 281 281 281 281 281 281 281 281 281 281 282 282 282 282 282 282 282 282 282 282 283 283 283 283 284 284 284 283 283 284
279 279 279 279 279 279 279 279 278 278 278 278 278 277 277 277 277 276 276 276 276 276 276 276 276 277 277 277 277 278 278 278 278 278 277 277 277 277 277 277 277 277 277 277 277 278 278 278 278 279 279 279 280 280 280 281 281 281 281 281 281 281 281 281 281 281 281 281 281 282 282 282 282 282 282 282 282 283 283 283 283 284 284 284 284 284
279 279 279 279 279 279 279 279 278 278 278 278 278 277 277 277 277 277 276 276 276 276 276 276 276 276 277 277 277 277 278 278 278 277 277 277 277 277 277 277 277 277 277 277 277 277 278 278 278 278 279 279 279 280 280 280 280 280 280 280 280 280 281 281 281 281 281 281 281 281 281 281 281 281 281 282 282 282 283 283 283 283 283 284 284 284
279 279 279 279 279 279 279 279 278 278 278 278 277 277 277 277 277 277 277 277 276 276 276 276 276 276 276 277 277 277 277 277 277 277 277 277 277 276 276 276 277 277 277 277 277 277 278 278 278 278 278 279 279 280 280 280 280 280 280 280 280 280 280 280 281 281 281 281 281 281 281 281 281 281 281 281 281 282 282 283 283 283 283 283 284 284
279 279 279 279 279 279 279 278 278 278 278 278 277 277 277 277 277 277 277 277 277 277 276 276 276 276 276 277 277 277 277 277 277 277 277 277 276 276 276 276 276 276 277 277 277 277 277 278 278 278 278 279 279 280 280 280 280 280 280 280 280 280 280 280 280 280 280 281 281 281 280 280 281 281 281 281 281 282 282 282 283 283 283 283 283 284
280 279 279 279 279 278 278 278 278 278 278 278 277 277 277 277 277 277 277 277 277 277 277 277 277 277 277 277 277 277 277 277 277 277 277 277 276 276 276 276 276 277 277 277 277 277 277 277 278 278 278 279 279 279 279 279 279 279 280 280 280 280 280 280 280 280 280 280 280 280 280 280 280 280 280 280 281 281 282 282 282 283 283 283 283 283
280 279 279 279 279 278 278 278 278 278 278 278 278 277 277 278 278 278 278 277 277 277 277 277 277 277 277 277 277 277 277 277 277 277 277 276 276 276 276 276 277 277 277 277 277 277 277 277 278 278 278 279 279 279 279 279 279 279 279 279 279 279 280 280 280 280 280 280 280 280 280 280 280 280 280 280 280 281 281 282 282 282 283 283 283 283
280 279 279 279 278 278 278 278 278 278 278 278 278 278 278 278 278 278 278 278 278 278 278 278 278 278 278 277 277 277 277 277 277 277 277 277 276 276 277 277 277 277 277 277 277 277 277 278 278 278 278 279 279 279 279 279 279 279 279 279 279 279 279 279 279 280 280 280 280 279 279 279 279 279 279 280 280 280 281 281 282 282 283 283 283 283
280 279 279 279 278 278 278 278 278 278 278 278 278 278 278 278 278 278 278 278 278 278 278 278 278 278 278 278 278 278 278 278 277 277 277 277 277 277 277 277 277 277 277 277 277 277 277 278 278 278 278 279 279 279 279 279 279 279 279 279 279 279 279 279 279 279 279 279 279 279 279 279 279 279 279 279 279 280 280 281 281 282 282 283 283 283
279 279 279 279 278 278 278 278 278 278 278 278 278 278 278 278 278 278 278 279 279 278 278 278 278 279 279 279 279 279 279 278 278 278 278 277 277 277 277 277 277 277 277 277 277 277 278 278 278 278 278 279 279 279 279 279 279 279 279 279 278 278 278 279 279 279 279 279 279 279 279 279 279 279 279 279 279 280 280 281 281 282 282 282 283 283
279 279 279 279 279 279 279 279 279 279 279 279 279 279 279 279 279 279 279 279 279 279 279 279 279 279 279 280 280 280 279 279 278 278 278 278 278 278 278 278 277 277 277 277 278 278 278 278 278 278 278 278 278 278 278 278 278 278 278 278 278 278 278 279 279 279 279 279 279 279 279 279 279 279 279 279 279 279 280 280 281 281 282 282 282 283
279 279 279 279 279 279 279 279 279 279 279 279 279 279 279 279 279 279 279 279 279 279 279 279 279 279 279 280 280 280 279 279 279 278 278 278 278 278 278 278 278 277 277 278 278 278 278 278 278 278 278 278 278 278 278 278 278 278 278 278 278 278 278 278 278 278 278 278 278 278 278 278 278 278 278 279 279 279 280 280 281 281 282 282 282 282
279 279 279 279 279 279 279 279 279 279 279 280 280 279 279 279 279 279 279 279 279 279 279 279 279 279 280 280 280 280 279 279 279 279 278 278 278 278 278 278 278 278 278 278 278 278 278 278 278 278 278 278 278 278 278 278 278 278 278 278 278 278 278 278 278 278 278 278 278 278 278 278 278 278 278 279 279 279 280 280 280 281 281 282 282 282
279 279 279 279 279 279 279 279 279 279 280 280 280 280 279 279 279 279 279 279 279 279 279 279 279 279 280 280 280 279 279 279 279 278 278 278 278 278 278 278 278 278 278 278 278 278 278 278 278 278 278 278 278 278 278 278 278 278 278 278 278 278 278 278 278 278 278 278 278 278 278 278 278 278 278 279 279 279 280 280 280 281 281 281 282 282
279 279 279 279 279 279 279 279 279 279 280 280 280 279 279 279 279 279 279 279 279 279 279 279 279 279 279 280 279 279 279 279 279 278 278 278 278 278 278 278 277 277 278 278 278 278 278 278 278 278 278 278 278 278 278 278 278 278 278 277 278 278 278 278 278 278 278 278 278 278 278 278 278 278 278 279 279 279 279 280 280 280 281 281 281 281
279 279 279 279 279 279 279 279 279 279 279 279 279 279 279 279 279 279 279 279 279 279 279 279 279 279 279 279 279 279 279 278 278 278 278 278 278 278 278 277 277 277 278 278 278 278 278 278 278 278 278 278 278 278 278 278 278 278 277 277 277 277 278 278 278 278 278 278 278 278 278 278 278 278 278 279 279 279 279 280 280 280 281 281 281 281
279 279 279 279 279 279 279 279 279 279 279 279 279 279 279 279 279 279 279 279 279 279 279 279 279 279 279 279 279 279 279 278 278 278 278 278 278 278 278 277 277 277 277 278 278 278 278 278 278 278 278 278 278 278 278 278 278 278 277 277 278 278 278 278 278 278 278 278 278 278 278 278 278 278 278 278 279 279 279 279 280 280 280 281 281 281
279 279 279 279 279 279 279 279 279 279 279 279 279 279 279 279 279 279 279 279 279 279 279 279 279 279 279 279 279 279 278 278 278 278 278 278 278 278 278 277 277 277 278 278 278 278 278 278 278 278 278 278 278 278 278 278 278 278 278 278 278 278 278 278 278 278 278 278 278 278 278 278 278 278 278 278 279 279 279 279 280 280 280 280 280 280
279 279 279 279 279 279 279 279 279 279 279 279 279 279 279 279 279 279 279 279 279 279 279 279 279 279 279 279 279 279 278 278 278 278 278 278 278 278 278 277 277 277 277 278 278 278 278 278 279 279 278 278 278 278 278 278 278 278 278 278 278 278 278 278 278 278 278 278 278 278 278 278 278 278 278 278 278 279 279 279 280 280 280 280 280 280
279 279 279 279 279 279 279 279 279 279 279 279 279 279 279 279 279 279 279 279 279 279 279 279 279 279 279 279 279 279 278 278 278 278 278 278 278 278 278 277 277 277 277 278 278 278 278 278 279 279 279 279 278 278 278 278 278 278 278 278 278 278 278 278 278 278 278 278 278 278 278 278 278 278 278 278 278 279 279 279 279 279 280 280 280 280
Wind_Speed
4 4 5 7 8 7 8 11 13 13 12 13 13 14 16 16 16 16 17 17 17 17 16 16 16 16 16 16 16 17 18 19 19 19 19 18 18 19 19 19 19 19 19 19 18 18 18 18 18 18 18 18 18 18 19 19 19 20 21 24 26 25 23 22 22 22 23 23 23 23 23 24 24 24 24 24 24 24 24 24 24 24 24 24 25 25
4 5 5 7 8 8 8 11 13 13 13 13 14 14 16 16 17 17 17 17 17 17 17 16 16 16 15 15 16 17 18 19 19 19 19 19 19 19 19 19 19 19 19 18 18 18 18 18 18 18 18 18 18 18 19 19 19 20 22 25 26 25 23 22 22 22 23 23 23 24 24 24 24 24 24 24 24 24 24 24 24 24 24 25 25 25
5 5 6 7 8 8 9 11 13 13 13 13 13 14 16 16 17 17 17 18 17 17 17 16 16 15 15 15 15 17 18 19 19 19 19 19 19 19 19 19 19 19 19 18 18 18 18 18 18 18 18 18 18 18 19 19 20 20 22 25 26 25 23 22 22 22 23 23 24 24 24 24 24 24 24 25 25 25 25 25 24 25 25 25 25 25
6 6 7 7 7 8 9 10 12 13 14 13 14 14 15 16 16 17 17 18 18 17 17 16 15 15 14 14 15 17 19 19 19 19 19 19 19 19 19 19 19 19 18 18 18 17 17 18 18 18 18 17 17 18 19 19 20 21 22 24 25 25 23 22 22 23 23 23 24 24 24 24 24 24 24 25 25 25 25 25 25 25 25 25 25 24
6 6 7 7 7 7 8 9 12 13 14 13 14 14 15 15 16 17 17 18 18 17 17 16 15 14 14 14 16 17 19 19 19 19 19 19 19 19 19 19 19 19 18 18 17 17 17 17 18 18 17 17 17 18 19 20 20 21 23 24 25 24 23 23 23 23 23 23 23 24 24 24 24 24 24 24 25 25 25 24 24 24 24 24 24 24
6 6 6 6 7 7 8 9 11 13 13 13 13 14 15 16 17 17 17 17 17 17 17 16 15 14 13 14 15 17 18 19 18 18 18 19 19 19 19 19 19 19 18 18 17 17 17 17 18 18 17 17 17 18 19 20 21 22 23 24 24 24 24 23 23 23 23 23 23 23 24 24 24 24 24 24 24 24 24 24 24 24 23 23 23 23
6 6 6 6 6 7 7 9 11 13 13 13 13 14 15 16 17 18 18 17 16 16 16 16 15 14 13 14 15 17 18 18 18 18 18 18 19 19 19 19 19 18 18 17 17 17 17 18 18 18 17 17 17 18 19 20 21 22 23 24 24 24 24 24 23 23 24 23 23 23 24 24 24 24 24 24 24 24 24 23 23 23 23 23 23 23
6 7 7 7 7 8 8 9 10 12 14 14 14 15 15 17 18 18 18 17 16 15 15 15 15 14 14 14 15 16 17 18 18 18 18 18 18 19 19 19 18 18 17 17 17 17 17 17 18 17 17 17 17 18 20 21 21 22 23 24 24 24 24 24 24 24 24 24 24 24 24 24 24 24 24 24 24 23 23 23 23 22 22 22 23 23
7 7 7 7 8 9 9 9 10 12 13 14 14 15 16 17 18 18 18 17 16 16 15 15 15 15 15 15 16 17 17 17 17 17 17 18 18 18 19 19 18 18 17 17 16 16 17 17 17 17 17 17 17 18 20 21 22 22 23 24 24 24 24 24 24 24 24 24 24 24 24 24 24 24 23 23 23 23 23 22 22 22 22 22 23 23
7 7 7 7 8 9 9 10 11 11 12 13 13 14 15 17 18 18 18 18 17 17 16 15 15 15 15 15 16 17 18 18 18 18 17 17 17 18 18 18 18 17 17 16 16 16 17 17 17 17 17 17 17 19 20 21 22 23 23 24 24 24 24 24 24 24 24 24 24 24 24 24 24 23 23 23 23 22 22 22 22 22 22 23 23 24
7 7 7 7 8 8 9 10 11 11 12 13 13 13 14 16 18 18 18 18 18 18 17 16 15 15 15 15 16 17 18 19 19 18 18 17 17 17 17 17 17 17 17 16 15 15 16 17 17 17 16 17 18 19 20 21 22 23 24 24 24 24 24 24 24 24 24 24 24 24 24 23 23 23 23 22 22 22 22 22 22 22 22 23 24 24
7 7 7 7 8 9 10 10 11 11 13 14 14 15 15 16 17 17 17 17 18 18 17 16 15 14 14 14 15 17 18 19 19 18 18 17 17 17 17 17 17 16 16 15 15 15 16 17 17 16 16 17 18 19 21 22 23 23 24 24 24 24 24 24 24 24 24 24 24 23 23 23 23 23 22 22 22 22 22 22 22 22 23 24 24 24
7 7 7 8 8 9 10 11 12 13 14 14 15 15 16 17 17 17 16 16 17 17 17 16 15 14 12 12 13 16 18 18 18 18 17 17 16 16 17 17 17 16 16 15 14 15 16 16 16 16 16 16 18 20 21 22 23 23 24 24 24 25 24 24 24 24 24 24 23 23 23 23 23 22 22 22 22 22 22 22 22 23 24 24 24 24
8 8 8 8 9 10 11 12 13 13 14 14 15 15 15 16 17 17 16 16 16 16 16 16 15 13 11 11 12 15 17 18 18 18 17 16 16 16 16 17 17 16 16 15 15 15 15 16 16 15 16 16 18 20 21 22 23 24 24 24 24 25 25 24 24 24 24 23 23 23 23 22 22 22 22 22 22 22 22 22 22 23 24 25 24 23
8 9 9 9 9 10 11 12 12 13 13 14 15 15 15 16 16 16 16 16 16 16 16 15 15 13 11 10 12 14 17 18 18 18 18 17 16 15 16 16 17 16 16 15 15 15 15 15 15 15 16 17 18 20 22 23 23 24 24 24 24 25 24 24 24 24 24 23 23 22 22 22 22 22 22 22 22 22 22 22 23 24 24 24 24 23
8 9 9 9 9 10 11 12 12 13 13 14 15 15 16 15 15 15 15 15 15 15 15 15 14 13 11 10 12 15 17 18 18 18 18 17 16 15 15 16 16 16 16 16 15 15 15 15 15 15 16 17 19 20 22 23 23 24 24 24 25 25 25 24 24 24 23 23 23 22 22 22 22 22 23 23 23 22 22 22 23 24 24 24 24 23
8 9 9 9 10 10 11 11 12 13 14 14 15 15 15 15 14 14 14 14 13 13 13 13 12 11 10 12 13 15 18 18 18 18 18 18 17 16 15 15 16 16 16 16 16 16 16 15 15 16 16 17 19 20 22 22 23 24 24 24 25 25 24 24 24 24 24 23 23 22 22 22 22 23 23 23 23 23 23 23 23 24 24 24 24 23
8 9 9 10 10 10 11 11 12 13 14 15 15 15 15 14 13 13 13 13 12 12 12 11 10 9 10 11 13 16 18 18 18 18 18 18 17 16 16 15 16 16 16 16 16 16 16 16 16 16 17 18 19 20 21 22 23 23 24 24 24 24 24 24 24 24 24 23 23 22 22 23 23 23 23 23 23 23 23 23 24 24 24 24 23 23
8 9 9 10 10 10 11 11 12 13 14 14 15 15 15 14 13 13 12 12 11 11 11 11 11 11 11 12 14 16 17 18 17 17 18 17 17 17 16 16 16 17 17 16 16 17 17 17 17 17 17 18 18 19 21 22 23 23 24 24 24 24 24 24 24 24 23 23 23 23 23 23 23 23 23 23 23 23 23 23 24 24 24 24 23 23
8 8 9 9 10 10 11 11 12 13 14 14 15 14 14 14 13 12 12 11 11 11 11 11 11 11 12 14 15 16 17 17 17 17 17 17 17 17 17 17 17 17 17 17 17 18 18 18 18 18 17 17 18 19 20 22 23 23 24 24 24 24 24 24 24 24 23 23 23 23 23 23 23 23 23 23 23 23 23 23 24 25 25 24 23 22
7 8 8 9 9 9 10 11 12 13 14 14 14 13 13 13 13 12 12 11 11 11 11 11 11 12 13 15 16 16 16 16 16 16 17 17 17 17 17 18 18 18 18 18 18 19 19 19 18 17 17 17 17 19 20 21 22 23 24 24 24 24 24 24 24 24 24 23 23 23 23 23 23 23 23 23 23 23 23 24 24 25 24 24 23 22
7 7 8 9 9 9 9 11 12 13 14 14 13 12 12 12 12 12 12 12 12 12 12 12 13 14 15 15 16 15 14 14 14 15 16 16 17 18 18 18 18 18 18 19 19 20 20 19 18 17 16 16 17 19 20 21 22 23 24 24 24 24 24 24 24 24 23 23 23 23 23 23 23 23 23 23 23 23 23 24 25 25 25 24 23 22
7 7 8 8 9 9 9 10 11 12 13 13 12 11 11 11 11 12 12 12 12 12 13 14 15 16 15 15 14 13 12 11 12 13 14 15 17 19 20 19 18 18 18 19 20 21 21 20 18 17 16 16 17 18 20 21 22 23 23 23 23 23 23 23 24 24 24 23 23 23 23 23 23 23 23 23 23 23 23 24 25 25 25 24 22 21
7 7 7 8 9 9 9 9 10 12 13 12 12 11 12 11 11 11 11 11 12 13 14 15 15 14 13 12 12 11 11 10 11 12 13 14 17 19 19 19 19 19 19 20 21 21 21 20 18 17 16 16 16 18 20 21 22 23 23 23 23 23 23 23 24 24 24 23 23 23 23 23 23 23 23 23 23 23 24 24 25 25 24 23 22 20
7 7 7 7 8 8 8 9 10 11 12 12 12 11 12 12 11 11 10 11 11 13 14 14 13 12 12 12 12 11 11 10 10 12 13 15 17 19 19 18 18 19 20 21 21 21 21 20 18 17 15 15 16 18 20 21 22 23 23 23 23 23 23 23 23 24 24 23 23 23 23 23 23 23 23 23 23 23 24 25 25 25 24 23 21 19
7 7 7 7 8 8 8 8 9 10 11 11 12 12 13 12 11 10 9 9 11 12 13 13 12 12 12 12 12 12 12 10 10 12 14 16 18 19 19 18 18 19 21 22 21 21 20 20 18 16 15 15 17 19 20 21 22 22 22 22 22 22 22 23 23 24 24 24 23 23 23 23 23 23 23 23 23 23 24 25 25 25 24 22 20 18
7 7 7 8 8 8 8 8 8 10 10 11 12 12 13 12 11 9 9 10 11 12 12 12 12 12 13 13 13 13 12 11 10 12 15 17 17 18 18 18 19 20 21 21 21 20 20 18 17 15 15 16 18 19 21 21 22 22 22 22 22 22 22 23 23 24 24 23 23 23 23 23 23 23 23 23 23 23 24 25 25 24 23 21 19 18
8 8 8 8 7 7 8 9 10 10 11 12 12 12 12 11 10 9 9 11 12 12 11 11 11 12 12 13 14 14 12 10 11 14 17 17 16 16 18 19 19 20 21 21 21 20 18 16 14 14 15 17 19 20 21 21 21 21 21 22 22 22 22 23 23 24 24 23 23 23 23 23 23 23 23 23 23 24 24 25 25 24 22 20 18 17
7 7 7 7 7 8 9 11 12 12 13 13 13 13 12 11 9 9 10 11 11 11 11 11 12 12 13 14 15 14 11 9 11 15 19 18 16 16 18 18 19 19 20 21 21 19 16 13 12 13 16 18 20 20 20 20 21 21 21 22 22 21 22 23 23 24 23 23 23 23 23 23 23 23 23 23 23 24 24 25 25 23 21 20 18 18
7 7 8 8 9 10 12 13 13 14 14 13 13 12 12 10 9 9 10 10 10 10 11 11 12 12 13 14 14 11 9 10 13 17 19 18 16 16 18 18 18 19 19 19 17 16 15 14 13 14 16 19 20 20 20 20 20 21 21 22 22 21 22 23 23 23 23 22 22 23 23 23 23 23 23 23 23 23 24 25 24 23 21 20 19 18
8 9 10 11 12 13 13 14 14 13 14 14 13 12 11 10 10 10 10 10 10 10 10 11 11 11 12 12 9 7 8 12 15 18 19 17 16 16 18 17 18 18 17 16 12 10 11 14 16 17 18 19 20 20 19 19 20 20 21 22 22 21 22 23 23 23 22 22 22 22 22 23 23 23 23 23 23 23 24 24 23 22 21 20 19 19
10 10 11 11 12 12 12 12 12 13 13 13 13 12 11 11 10 10 10 10 9 10 10 10 11 11 11 10 8 8 10 13 16 19 19 17 16 16 17 17 17 17 16 14 12 9 7 11 17 20 20 20 20 19 19 19 19 20 21 22 21 22 22 23 23 22 22 22 22 22 22 22 22 23 23 22 22 23 23 23 23 22 21 20 19 19
10 10 10 11 11 11 11 11 12 12 12 12 13 12 12 11 11 10 10 10 10 9 10 10 10 11 11 11 11 11 12 14 16 18 19 17 16 16 16 16 17 17 16 15 14 13 11 13 17 21 21 20 19 19 18 18 19 20 21 21 21 22 22 23 22 22 22 22 22 22 22 22 22 23 22 22 22 23 23 23 22 21 20 20 19 19
9 9 10 10 10 10 11 11 11 12 12 12 13 13 13 12 11 11 11 10 10 9 9 9 10 10 11 11 11 12 13 14 15 17 18 17 16 15 16 16 16 17 17 16 15 15 14 16 18 19 20 20 19 18 18 18 19 20 20 20 21 21 22 22 22 22 22 22 21 21 22 23 23 23 23 23 23 23 23 22 21 20 19 19 19 19
9 9 10 11 11 11 11 11 12 12 12 13 13 13 13 13 12 11 11 11 11 10 9 9 9 9 10 11 12 13 14 15 16 17 17 16 16 16 16 15 16 16 16 16 16 15 15 16 18 18 18 19 19 18 17 18 19 20 20 20 20 20 20 21 21 21 21 21 21 21 22 22 22 23 23 23 24 24 23 22 21 19 19 19 18 18
8 9 10 11 11 11 11 12 12 12 13 13 14 14 14 13 13 12 12 12 12 12 11 10 9 9 9 10 11 12 14 15 16 17 17 16 16 15 14 15 15 16 16 16 16 16 15 16 18 18 18 17 17 18 19 20 20 20 20 20 20 20 20 20 20 20 21 21 21 21 21 22 22 23 23 24 25 24 22 21 20 19 19 19 18 17
8 9 9 10 11 11 11 12 12 13 13 14 14 15 14 14 14 14 13 14 14 14 13 12 11 10 10 10 10 12 13 15 16 16 16 16 16 15 14 15 15 16 16 16 17 17 17 17 17 17 17 16 16 17 20 22 22 21 21 21 20 20 19 19 19 20 20 20 21 21 21 22 22 23 24 25 25 23 22 20 19 19 19 19 18 17
8 9 9 10 11 11 11 12 12 13 13 14 14 15 14 14 14 14 14 15 15 15 14 13 13 13 13 12 12 13 13 15 16 16 16 16 16 16 15 16 16 16 15 16 16 17 17 16 15 15 15 16 17 18 20 21 21 22 22 21 20 19 19 19 20 20 20 20 21 21 22 22 22 22 23 24 24 23 22 21 20 20 20 19 18 17
9 9 9 10 11 11 11 11 12 13 13 13 14 14 14 14 14 14 14 14 14 14 14 14 14 14 15 15 14 14 14 15 15 16 16 16 16 16 16 16 16 16 16 16 16 15 15 15 15 14 15 16 18 19 20 20 20 21 22 22 21 20 19 19 20 20 20 20 21 22 22 22 22 22 22 23 23 22 21 21 21 21 21 20 19 18
9 9 9 10 11 11 11 11 12 13 13 13 13 14 14 14 14 14 14 13 13 13 13 14 14 14 14 14 13 13 14 15 15 15 15 16 17 17 17 17 17 17 17 17 16 15 15 15 15 16 17 17 17 19 19 19 20 20 22 21 21 20 21 20 20 19 19 20 21 21 22 22 22 22 22 22 21 21 21 20 21 21 21 20 20 19
9 9 9 10 11 12 12 12 12 13 13 13 12 13 13 14 14 14 14 14 14 14 14 14 14 13 13 12 11 11 12 13 14 14 15 15 16 17 17 17 17 18 17 17 16 15 15 15 16 16 17 17 18 18 18 18 19 20 20 20 20 21 22 20 19 19 20 20 21 21 22 22 23 23 22 22 21 20 20 20 20 21 20 19 18 18
9 9 10 11 11 12 12 12 12 12 12 12 12 12 13 14 14 14 14 15 15 15 15 15 15 14 13 12 12 11 11 12 12 13 14 15 16 16 17 17 17 17 17 17 16 16 15 15 15 16 16 17 17 17 18 18 18 19 18 19 21 22 21 20 19 19 20 21 21 21 22 23 23 23 23 22 21 21 20 19 20 20 19 18 18 17
9 9 10 11 11 11 12 12 12 12 12 11 11 12 12 13 14 14 14 15 15 15 16 15 15 15 14 14 13 13 13 13 13 13 14 14 15 16 17 17 17 17 17 17 16 16 16 15 15 15 16 16 16 17 17 18 18 18 18 19 20 20 18 19 21 22 22 21 21 21 22 23 23 23 23 22 21 20 20 19 19 19 18 18 18 17
9 10 10 11 11 11 11 11 12 12 12 12 12 12 13 13 14 14 14 15 15 15 16 16 16 15 14 14 15 15 15 14 14 14 14 14 15 16 17 18 18 17 17 16 16 16 16 16 15 15 15 15 15 16 16 17 18 18 18 19 19 18 17 19 21 22 22 22 22 22 22 23 24 24 23 21 20 19 19 19 19 18 18 18 17 17
9 10 10 10 11 11 11 12 12 12 12 12 12 12 13 14 14 14 14 15 15 15 16 16 16 15 15 15 16 16 16 16 16 15 15 15 16 17 17 18 18 18 17 16 16 16 16 16 16 15 15 14 14 14 15 16 17 18 19 19 19 18 18 19 20 20 21 22 22 23 23 24 24 23 22 21 20 20 19 19 19 19 19 18 18 18
9 10 10 11 11 11 12 12 12 12 12 12 12 13 13 14 14 14 14 15 15 15 15 15 15 15 15 16 17 18 18 18 18 17 17 17 17 18 18 18 18 18 18 17 16 15 15 15 15 15 15 14 14 13 14 15 17 18 19 20 20 19 19 19 19 19 20 21 22 23 24 25 24 22 21 21 21 20 20 19 19 19 19 18 18 18
10 10 11 11 11 11 12 12 12 12 13 13 13 13 14 14 15 15 15 15 15 15 15 15 15 15 15 16 17 18 18 19 19 19 18 18 19 19 19 19 19 18 17 17 16 16 15 15 14 14 13 13 13 14 15 16 17 18 18 19 20 20 20 20 20 20 20 21 22 23 25 25 23 22 22 22 22 21 20 19 19 18 18 18 18 19
10 10 11 11 11 12 12 12 12 13 13 13 13 14 14 14 15 15 15 15 15 15 16 16 16 15 16 16 17 18 18 18 18 18 19 19 20 20 20 20 20 19 18 17 16 15 14 14 13 12 10 10 12 14 15 17 17 17 18 19 19 19 20 20 20 21 21 21 22 23 23 22 21 22 23 23 23 22 21 21 20 19 18 18 18 19
9 10 11 11 11 12 12 12 13 13 13 14 14 14 14 14 14 15 15 15 15 15 15 16 16 16 16 17 17 18 18 18 18 18 18 19 20 21 21 22 21 20 19 17 16 15 14 13 11 8 7 8 10 14 16 17 18 18 18 18 19 19 20 21 21 21 22 22 22 22 21 20 20 20 21 22 22 23 23 22 21 19 18 18 19 19
9 10 11 11 12 12 12 12 13 13 13 14 14 14 14 14 14 14 14 15 15 15 15 15 16 16 16 17 18 18 19 18 18 18 18 19 20 20 21 22 22 22 21 19 18 17 16 14 11 7 6 6 9 13 16 18 18 18 18 18 19 19 20 21 21 22 22 23 23 22 21 20 20 20 20 20 22 23 23 22 21 20 20 20 20 20
10 10 10 11 12 12 12 12 12 13 13 14 14 14 14 14 14 15 15 15 15 15 15 15 15 15 16 17 17 18 18 18 17 18 18 19 19 20 21 21 22 22 21 20 19 18 17 15 12 10 8 8 10 13 15 17 18 19 19 19 19 20 20 21 22 22 23 22 22 22 21 21 20 19 19 20 20 22 23 23 23 22 22 22 22 22
Wind_Direction
352 352 356 359 359 360 1 2 0 357 353 351 349 348 347 346 344 343 344 344 343 342 341 341 340 340 341 343 346 349 350 351 351 351 352 351 351 351 351 351 351 351 351 351 351 352 352 352 351 351 351 351 350 350 350 350 349 347 344 341 344 350 354 352 348 346 344 343 343 342 342 341 341 341 341 340 340 339 339 338 337 336 336 335 335 334
355 356 357 359 1 2 1 1 1 359 353 350 348 346 345 343 342 342 342 342 342 341 341 341 341 342 342 342 345 347 349 350 350 351 351 351 351 351 351 351 352 352 351 351 352 352 352 352 352 352 352 351 351 350 350 350 349 347 344 342 345 350 353 351 348 346 345 344 343 343 342 342 342 341 341 340 340 339 339 338 337 337 336 336 335 334
358 359 359 358 360 2 360 360 360 358 354 350 347 346 345 343 342 342 341 341 341 341 341 342 342 343 342 343 344 346 348 349 349 350 350 351 351 351 351 351 352 352 351 351 352 352 352 352 352 352 352 352 351 350 350 349 349 347 344 343 345 349 351 349 347 345 344 344 343 343 342 342 341 341 340 340 339 339 339 338 337 337 336 336 335 335
4 1 357 354 356 359 359 358 357 356 353 349 347 347 346 344 343 341 341 340 340 340 341 343 344 344 344 343 344 346 347 348 349 349 350 350 350 350 351 351 351 351 351 351 352 352 352 352 352 352 352 352 351 350 350 349 348 346 344 344 346 349 350 349 346 345 344 343 343 342 342 341 341 340 339 339 339 338 338 338 337 337 336 336 335 335
7 1 355 351 351 352 354 356 355 354 351 349 347 347 346 344 341 340 341 341 341 341 342 343 345 346 345 344 344 345 347 348 349 349 350 350 350 350 350 350 350 351 351 351 351 352 352 352 352 351 351 351 351 350 350 349 348 346 344 344 346 348 349 348 346 345 343 343 342 341 341 340 340 339 339 338 338 338 338 337 337 336 336 336 336 336
3 359 353 351 349 346 347 352 354 354 351 349 347 346 345 342 341 340 341 342 342 342 342 343 344 346 347 345 344 344 346 347 348 348 349 349 349 349 349 349 349 349 350 350 351 351 351 351 351 351 351 351 351 350 349 349 347 346 345 344 345 347 348 346 345 344 343 342 341 341 340 340 339 339 338 338 338 338 337 337 337 337 337 338 337 337
357 355 353 352 349 346 346 349 353 354 351 348 346 346 346 343 342 341 341 342 343 344 343 343 344 345 347 346 346 346 346 347 348 348 347 348 348 348 348 348 348 348 349 349 350 350 351 351 351 351 351 351 350 350 349 348 347 346 344 344 345 346 347 346 344 343 342 341 341 340 340 339 339 338 338 338 338 338 338 338 338 338 339 339 338 337
356 354 355 352 350 349 347 349 352 353 352 348 347 346 346 345 343 341 341 343 345 347 346 345 344 345 347 347 347 348 347 347 347 347 346 346 346 346 347 347 347 348 348 348 348 349 350 350 350 350 350 350 350 349 349 348 347 346 345 344 345 346 346 345 343 342 341 341 340 340 339 339 339 339 339 339 339 339 339 339 339 340 340 340 339 337
358 356 355 354 352 349 347 348 351 352 352 350 348 347 346 345 344 342 342 345 348 349 349 347 345 344 345 346 348 348 348 347 346 345 345 344 344 344 345 345 346 346 347 347 347 347 348 348 349 349 349 349 349 349 348 347 346 346 345 345 345 345 345 344 343 342 341 340 340 340 340 340 340 340 340 340 340 340 340 340 341 341 341 340 339 337
2 358 355 354 355 353 349 346 347 350 352 352 350 349 347 346 345 343 344 345 347 349 349 348 345 343 342 344 346 347 347 346 346 345 344 343 342 342 343 344 344 344 345 344 344 345 346 347 347 348 348 348 348 348 348 347 346 345 345 345 345 344 344 344 343 342 341 340 340 340 340 340 340 340 340 341 341 342 342 342 342 342 342 340 339 339
1 359 355 353 354 355 352 349 346 348 351 352 353 353 353 351 348 345 343 343 344 346 347 346 344 341 340 341 343 345 345 345 344 344 343 343 343 343 343 343 343 342 342 341 341 342 343 344 345 346 346 347 347 347 347 346 346 345 345 344 344 344 343 343 342 341 341 340 340 341 341 341 341 341 342 342 343 343 343 343 343 343 342 341 341 342
359 356 355 353 353 353 354 352 350 351 354 355 355 355 354 353 350 346 342 340 341 342 342 341 340 339 338 339 341 344 344 344 342 341 341 341 342 344 344 344 343 342 341 340 339 339 340 341 342 343 344 345 346 346 346 345 345 344 344 344 344 344 343 342 341 341 341 341 341 341 341 342 342 342 343 343 344 344 344 344 344 343 343 343 344 346
1 356 354 355 356 357 356 355 354 356 358 359 358 354 350 348 347 345 341 338 338 339 339 337 335 335 336 339 343 344 344 342 340 339 338 338 340 343 343 343 343 342 340 339 337 338 339 339 340 341 342 343 344 345 345 345 344 344 344 344 344 343 343 342 341 341 341 341 341 342 342 342 343 343 343 344 344 344 344 344 344 344 343 344 346 347
2 359 358 358 359 0 0 359 358 358 359 358 356 351 346 344 344 343 341 339 338 337 337 335 333 333 334 341 346 347 345 341 339 338 337 336 337 339 340 341 340 340 339 337 336 336 336 338 338 339 340 342 343 344 344 344 344 344 344 344 343 343 343 342 342 342 342 342 342 342 342 343 343 344 344 344 344 344 344 344 344 344 344 344 346 347
3 1 0 360 0 1 2 1 359 358 356 354 351 347 344 344 344 344 341 338 336 336 336 336 334 334 336 342 347 349 347 343 340 337 335 333 333 336 338 338 337 338 338 336 334 334 334 336 336 336 337 339 341 342 343 343 343 344 344 344 343 343 343 343 343 343 343 343 343 343 343 344 344 344 344 344 344 344 345 345 344 344 344 345 346 346
6 4 2 359 359 1 2 1 358 355 352 350 348 346 345 344 343 342 340 336 335 336 337 337 337 336 335 339 346 350 349 344 340 336 333 330 330 333 336 336 335 335 336 335 334 333 333 333 333 333 334 336 338 340 341 342 343 343 344 344 343 343 343 343 344 344 344 343 343 343 344 344 344 344 344 344 345 345 345 345 344 344 344 345 345 345
10 8 4 359 358 358 359 360 357 354 350 348 346 346 344 342 340 338 337 335 335 336 336 337 336 334 332 334 341 347 348 344 339 334 331 328 328 331 334 334 333 333 333 334 333 332 332 331 331 330 330 332 335 338 340 341 342 343 343 343 343 343 344 344 345 345 345 344 344 344 344 344 345 345 345 345 345 345 345 345 344 344 344 345 345 344
14 11 6 1 356 354 355 357 356 353 349 347 344 342 340 338 337 336 335 334 334 334 332 331 329 327 325 327 332 339 343 342 337 333 330 327 326 329 334 334 332 331 330 332 332 332 331 329 327 326 326 328 332 336 338 340 341 342 343 343 343 344 344 345 345 345 345 346 345 345 345 345 345 346 345 345 345 345 345 345 345 344 344 345 344 343
14 13 8 2 355 352 353 355 353 351 348 345 342 338 337 336 336 335 335 334 332 330 326 323 320 318 318 318 322 329 337 338 335 332 329 326 325 328 333 334 332 330 329 330 331 332 331 328 325 323 323 326 330 333 336 339 340 341 342 343 343 344 344 345 345 346 346 346 346 346 345 346 346 346 346 346 346 346 346 346 345 345 344 344 344 343
14 13 8 0 354 351 352 351 350 348 346 342 338 336 334 333 333 334 333 332 330 327 322 318 315 313 313 313 317 323 330 334 334 332 328 324 324 327 332 333 331 328 327 328 331 331 330 327 324 322 323 325 329 332 335 337 339 341 342 342 343 344 344 345 346 346 346 346 346 346 346 346 346 346 346 346 346 346 346 346 345 344 344 344 343 342
16 13 7 0 355 351 349 346 344 343 341 339 337 335 333 333 332 331 330 330 328 325 322 316 311 309 311 310 311 316 325 331 333 331 327 324 324 327 332 333 331 328 326 327 329 330 329 326 323 322 322 323 327 331 333 336 338 340 341 342 343 344 344 345 346 346 346 346 346 346 346 346 346 346 346 346 346 346 346 346 345 344 344 343 342 342
18 10 4 2 359 353 345 341 340 340 339 338 337 334 331 330 328 326 325 325 324 322 318 311 305 302 301 300 302 308 320 326 330 329 326 324 324 326 330 331 329 327 326 327 328 328 327 325 322 320 320 322 325 330 333 335 337 339 340 341 342 343 344 344 345 346 346 346 346 346 346 346 346 347 347 347 347 347 346 346 345 345 344 343 342 342
20 10 4 1 358 352 345 341 340 340 340 339 335 330 326 323 319 316 316 316 315 313 308 304 301 299 297 297 301 308 317 324 329 330 328 325 323 325 328 330 329 327 326 326 327 326 325 323 321 320 319 322 325 329 332 334 336 338 339 340 341 342 343 344 345 346 346 346 346 346 346 346 347 347 347 347 347 346 346 346 346 345 344 343 342 341
19 12 6 2 358 352 348 344 343 342 341 339 334 327 322 319 314 309 306 307 307 307 306 305 305 305 305 310 315 319 323 328 334 336 333 327 322 322 325 328 329 327 325 325 325 325 323 321 320 319 320 323 326 329 332 334 335 337 338 339 340 341 343 343 344 345 346 346 346 346 346 347 347 347 347 347 347 347 347 346 346 346 344 343 342 341
20 14 8 2 356 352 348 346 345 345 344 342 336 330 326 323 319 312 307 309 312 314 313 312 312 315 320 325 327 328 328 332 339 343 340 330 323 322 324 328 329 327 324 324 324 324 322 320 319 320 322 325 328 330 332 333 335 336 337 338 340 341 342 343 344 345 345 346 346 346 347 347 347 347 347 347 347 347 347 347 346 345 344 343 342 340
17 10 2 354 349 345 342 343 346 348 348 346 341 336 334 334 331 324 321 324 326 325 324 322 322 325 328 330 331 329 329 332 342 348 344 334 326 322 324 328 330 327 324 324 324 324 322 319 319 321 325 328 330 331 331 333 334 335 336 337 339 340 341 342 343 344 345 345 345 346 346 347 347 347 347 347 347 347 347 347 347 346 344 343 342 340
4 358 352 348 345 344 344 347 351 353 354 352 347 343 343 345 342 336 336 337 335 333 330 328 328 329 331 332 331 328 327 332 343 349 346 336 327 322 324 329 330 328 325 323 323 322 319 316 317 322 327 330 330 331 331 332 333 335 336 337 338 339 340 342 343 344 344 345 345 345 345 346 346 347 347 347 347 347 348 348 347 346 345 344 342 340
359 355 352 351 351 353 358 1 3 3 0 357 353 351 352 353 350 343 340 337 336 334 332 331 330 330 331 330 326 323 324 333 347 350 346 337 327 321 324 328 330 329 327 324 322 320 318 317 319 325 329 331 331 330 331 332 333 334 335 337 338 339 340 341 342 343 343 344 344 345 345 345 346 346 347 347 347 347 348 348 347 346 345 345 343 340
4 1 359 360 1 5 8 9 9 7 3 360 357 356 357 357 353 343 335 335 335 334 331 330 330 329 327 325 323 321 325 340 351 349 345 338 328 322 325 328 330 331 330 327 325 324 323 323 325 329 331 331 331 331 331 333 334 335 336 337 337 338 339 340 341 342 342 343 344 344 344 345 345 346 346 347 347 347 347 348 348 347 345 344 342 340
12 12 12 11 10 10 10 9 7 4 2 360 359 359 359 357 351 343 336 335 335 333 329 327 327 328 327 326 326 326 331 343 348 347 345 338 330 324 326 328 330 332 333 332 330 328 326 326 328 331 332 331 331 331 332 333 335 336 336 336 337 338 339 340 340 340 341 342 343 343 344 344 345 346 346 346 346 346 347 347 347 346 345 343 342 340
20 17 14 13 11 9 7 5 3 0 358 358 358 358 357 354 349 344 340 337 334 330 326 324 323 325 327 329 329 328 327 332 338 343 343 337 328 324 326 327 328 330 333 334 332 327 324 324 326 329 331 331 331 332 332 333 335 336 336 336 336 336 337 338 339 339 340 341 341 342 343 343 344 344 345 345 345 345 346 347 347 346 344 342 341 340
23 17 11 10 8 6 4 1 359 357 355 355 356 356 355 353 349 345 341 338 334 329 324 321 320 321 322 321 318 313 315 321 330 337 340 335 326 322 325 325 325 326 329 330 326 320 315 318 321 324 328 329 329 330 331 333 335 336 336 336 335 335 336 338 339 339 339 340 340 341 341 342 342 343 343 343 344 344 345 345 345 345 343 342 340 339
20 14 10 8 7 5 2 360 358 355 354 353 353 353 353 351 349 346 342 339 335 330 325 320 319 319 318 315 311 309 310 317 325 333 337 334 327 323 324 325 325 325 327 327 323 317 311 310 315 320 323 325 326 328 330 333 335 336 337 336 335 334 335 337 338 338 338 338 339 340 340 341 341 341 341 342 342 342 343 343 343 343 343 341 339 337
15 11 9 8 7 6 3 1 359 357 355 354 352 352 351 350 348 345 343 340 336 331 325 320 317 317 316 316 314 312 314 318 326 332 336 334 329 324 324 325 326 327 327 327 325 322 315 313 316 319 321 322 324 326 329 333 335 336 336 336 335 334 335 337 337 337 337 338 338 339 339 340 339 339 339 340 340 340 340 339 340 341 341 340 338 336
12 10 9 8 7 5 3 1 359 358 356 355 353 352 351 350 347 344 342 340 339 335 329 322 317 313 313 313 314 315 317 321 327 332 335 334 330 326 325 325 326 327 327 327 326 325 321 318 318 319 320 321 323 326 329 332 333 334 334 335 334 334 334 335 336 336 336 337 337 338 338 338 337 337 337 337 338 338 337 336 337 338 339 339 337 336
12 10 9 7 5 4 2 360 358 357 356 355 354 353 352 350 348 345 343 342 342 341 337 330 321 314 310 309 308 310 314 320 326 331 335 334 331 327 324 324 325 327 326 326 326 325 322 319 319 320 320 321 323 326 328 331 332 333 334 335 335 334 334 335 336 336 335 336 336 337 337 337 336 335 334 335 335 335 335 334 334 335 336 337 336 335
12 10 8 6 4 2 359 358 357 356 354 353 353 353 351 349 347 345 343 343 344 345 342 335 328 321 317 313 309 309 314 322 327 331 333 334 332 329 324 322 323 325 326 325 325 324 322 320 320 321 322 323 323 325 327 329 331 333 333 334 334 334 334 335 336 336 335 335 335 335 335 335 334 333 333 334 335 335 334 333 333 334 334 334 334 333
12 9 6 4 2 0 358 357 355 354 352 351 350 350 349 346 344 343 342 341 342 341 338 332 326 323 323 321 319 318 319 323 326 329 331 333 333 330 325 322 323 324 324 323 322 321 320 320 320 322 322 322 322 322 325 328 330 331 331 331 332 332 334 335 336 336 336 335 334 334 334 334 334 333 333 334 335 335 334 334 333 333 333 333 332 331
10 7 3 1 359 358 356 354 352 351 350 349 347 346 346 343 342 342 341 339 337 335 331 327 323 320 319 318 317 316 316 320 323 327 329 331 333 332 329 325 323 323 324 322 319 317 316 317 317 318 319 319 320 322 324 327 329 330 330 331 332 333 334 335 336 336 336 335 334 334 334 334 334 334 333 333 333 333 332 331 331 331 332 332 332 331
6 2 359 357 355 354 353 350 349 348 347 345 344 345 344 343 342 341 340 338 335 333 331 329 324 320 317 314 312 311 313 317 322 326 328 330 332 333 331 327 325 324 324 322 319 316 314 314 313 314 314 315 317 320 322 325 327 329 331 332 332 332 332 333 334 335 335 335 334 334 333 333 333 333 332 331 330 329 328 327 327 328 329 330 330 330
1 357 353 351 350 350 349 347 346 345 344 343 343 343 344 344 343 341 340 338 337 336 335 334 331 327 324 321 320 318 318 320 323 325 327 330 332 333 333 330 327 325 323 322 320 318 315 313 313 314 315 315 316 318 320 322 325 329 331 331 329 327 327 329 332 335 335 334 334 333 333 332 332 331 330 329 327 326 324 323 323 324 325 327 328 329
357 352 348 346 344 344 343 342 342 342 342 343 343 344 345 345 344 341 339 339 339 339 339 338 336 334 333 334 335 335 333 330 329 329 330 331 333 333 333 331 329 327 324 322 321 319 317 315 315 315 316 317 318 318 319 321 325 328 331 330 328 327 327 329 333 335 335 334 333 333 333 333 331 330 328 326 324 323 322 321 321 321 322 324 325 326
353 349 345 343 341 341 339 339 340 341 343 343 344 344 345 346 344 342 340 340 339 339 340 339 338 336 336 337 339 340 340 338 337 336 335 335 336 336 335 333 332 329 327 324 322 321 319 318 317 317 318 319 319 319 319 321 325 328 330 330 331 330 330 330 331 333 333 332 332 332 333 332 330 327 325 324 322 322 322 321 321 321 321 323 323 324
350 347 344 342 342 341 341 341 342 342 343 343 343 344 345 345 345 344 342 341 340 339 340 341 340 339 339 340 341 341 341 341 341 340 340 340 340 339 338 336 334 332 329 325 322 320 321 320 320 320 320 321 320 320 321 323 326 328 329 330 331 329 326 325 327 329 330 331 331 332 332 330 328 326 324 323 323 323 323 323 323 322 322 323 323 324
350 347 345 344 344 344 344 343 343 342 343 343 343 344 345 345 345 345 344 342 341 341 341 342 342 342 342 342 342 342 342 342 342 342 342 343 343 343 341 339 337 334 331 327 322 320 319 319 319 320 321 322 321 322 324 326 327 328 328 330 330 328 324 324 325 328 329 330 330 330 330 330 328 327 325 325 325 325 324 324 323 323 323 324 324 324
353 351 348 347 346 345 344 343 343 343 343 343 344 345 345 345 346 346 345 344 342 342 342 343 344 345 343 343 343 343 342 342 342 342 343 344 345 345 344 342 339 336 332 328 324 321 318 316 315 317 319 321 323 325 327 330 330 329 329 330 330 329 328 328 329 329 329 329 329 329 329 330 329 328 326 325 324 323 324 323 323 322 323 324 325 325
354 352 350 348 346 345 344 344 344 344 345 344 344 344 345 346 346 346 345 345 344 343 343 345 346 346 344 344 344 344 342 341 340 341 342 343 345 345 345 344 341 338 334 330 326 323 318 314 311 311 314 319 324 328 331 333 333 331 330 330 330 330 330 330 330 330 330 328 328 328 329 330 330 329 327 325 324 323 323 323 323 322 323 324 325 325
353 351 349 347 346 344 344 345 345 345 345 345 344 344 344 346 346 346 345 345 345 344 345 346 346 345 344 345 345 345 343 340 339 339 341 343 344 345 345 345 343 341 338 335 332 328 323 316 310 306 306 315 323 328 332 334 334 333 331 331 331 331 330 329 329 329 330 329 327 328 329 329 328 327 326 325 324 323 322 323 323 323 323 325 325 325
353 351 349 348 346 345 345 345 345 345 345 344 343 343 343 344 346 347 346 345 345 345 345 345 345 344 344 345 345 345 343 341 340 340 341 342 343 344 345 345 345 344 342 341 340 337 333 328 319 308 304 318 328 332 333 333 333 333 332 333 333 332 330 329 329 329 330 329 328 328 328 328 326 325 325 324 322 321 321 322 323 323 324 325 326 325
354 351 350 349 347 345 344 343 343 344 344 343 343 342 341 343 345 347 347 346 346 346 345 345 344 343 343 344 344 344 344 342 341 341 342 343 343 344 345 345 346 346 346 346 346 347 346 344 339 332 328 333 338 338 336 334 333 333 333 334 334 333 331 329 329 330 330 329 329 328 328 328 327 327 326 324 322 320 321 321 322 323 325 326 326 325
354 351 350 349 348 346 343 342 342 342 342 342 342 342 343 344 346 347 348 348 347 346 345 344 343 343 342 343 343 344 343 342 341 340 341 342 343 344 345 346 347 348 348 348 348 349 349 348 347 344 342 342 344 343 339 336 333 333 333 333 333 333 332 330 329 330 330 329 329 328 329 329 330 329 329 326 323 322 322 322 322 323 324 325 326 325